FW3814 Weather Reports


time (UTC)temp
C
wind
direction
speed
KPH
gust
KPH
rain 1hr
cm
rain 24hr
cm
rain mn
cm
humidity
%
barometer
mb
20260504050504 12 0 0.0 0.0 0.00 0.00 0.00 53 1015.3
20260504050004 12 0 0.0 0.0 0.00 0.00 0.00 53 1015.5
20260504045504 12 0 0.0 0.0 0.00 0.00 0.00 52 1015.3
20260504045004 12 0 0.0 0.0 0.00 0.00 0.00 52 1015.0
20260504044504 12 0 0.0 0.0 0.00 0.00 0.00 53 1015.2
20260504044004 12 0 0.0 0.0 0.00 0.00 0.00 53 1015.0
20260504043504 12 0 0.0 0.0 0.00 0.00 0.00 52 1015.0
20260504043004 12 0 0.0 0.0 0.00 0.00 0.00 51 1015.2
20260504042504 12 0 0.0 0.0 0.00 0.00 0.00 50 1015.2
20260504042004 12 0 0.0 0.0 0.00 0.00 0.00 50 1015.2
20260504041525 12 0 0.0 0.0 0.00 0.00 0.00 48 1015.3
20260504041004 13 0 0.0 0.0 0.00 0.00 0.00 48 1015.1
20260504040504 13 0 0.0 0.0 0.00 0.00 0.00 46 1015.2
20260504040004 13 0 0.0 0.0 0.00 0.00 0.00 46 1015.0
20260504035525 13 0 0.0 0.0 0.00 0.00 0.00 45 1015.1
20260504035004 13 0 0.0 0.0 0.00 0.00 0.00 44 1015.0
20260504034504 13 0 0.0 0.0 0.00 0.00 0.00 44 1015.1
20260504034004 13 0 0.0 0.0 0.00 0.00 0.00 44 1015.2
20260504033525 13 0 0.0 0.0 0.00 0.00 0.00 44 1015.0
20260504033004 14 0 0.0 0.0 0.00 0.00 0.00 44 1014.9
20260504032504 14 0 0.0 0.0 0.00 0.00 0.00 45 1015.2
20260504032025 14 0 0.0 0.0 0.00 0.00 0.00 44 1015.0
20260504031504 14 0 0.0 0.0 0.00 0.00 0.00 44 1015.1
20260504031025 14 17 0.0 3.2 0.00 0.00 0.00 44 1015.1
20260504030504 14 11 1.6 3.2 0.00 0.00 0.00 43 1015.1
20260504030004 14 360 0.0 3.2 0.00 0.00 0.00 42 1015.2
20260504025504 14 0 0.0 0.0 0.00 0.00 0.00 42 1015.1
20260504025004 14 0 0.0 0.0 0.00 0.00 0.00 42 1015.3
20260504024504 14 0 0.0 0.0 0.00 0.00 0.00 42 1015.2
20260504024025 14 0 0.0 0.0 0.00 0.00 0.00 42 1015.1
20260504023525 14 0 0.0 0.0 0.00 0.00 0.00 42 1015.5
20260504023004 14 0 0.0 0.0 0.00 0.00 0.00 42 1015.6
20260504022504 14 0 0.0 0.0 0.00 0.00 0.00 42 1015.5
20260504022004 14 357 0.0 3.2 0.00 0.00 0.00 42 1015.3
20260504021504 14 357 0.0 3.2 0.00 0.00 0.00 43 1015.3
20260504021004 14 0 0.0 0.0 0.00 0.00 0.00 43 1015.3
20260504020504 15 0 0.0 0.0 0.00 0.00 0.00 40 1015.5
20260504020004 15 0 0.0 0.0 0.00 0.00 0.00 40 1015.2
20260504015525 15 0 0.0 0.0 0.00 0.00 0.00 40 1015.3
20260504015004 15 0 0.0 0.0 0.00 0.00 0.00 40 1015.5
20260504014504 15 0 0.0 0.0 0.00 0.00 0.00 40 1015.6
20260504014004 15 0 0.0 0.0 0.00 0.00 0.00 40 1015.3
20260504013504 15 0 0.0 0.0 0.00 0.00 0.00 40 1015.5
20260504013004 15 0 0.0 0.0 0.00 0.00 0.00 40 1015.2
20260504012525 15 0 0.0 0.0 0.00 0.00 0.00 40 1015.3
20260504012025 15 0 0.0 0.0 0.00 0.00 0.00 41 1015.2
20260504011504 15 0 0.0 0.0 0.00 0.00 0.00 41 1015.5
20260504011004 15 0 0.0 0.0 0.00 0.00 0.00 41 1015.3
20260504010504 15 0 0.0 0.0 0.00 0.00 0.00 41 1015.3
20260504010025 15 0 0.0 0.0 0.00 0.00 0.00 41 1015.3
20260504005504 16 0 0.0 0.0 0.00 0.00 0.00 41 1015.2
20260504005004 16 325 0.0 3.2 0.00 0.00 0.00 41 1015.5
20260504004504 16 325 0.0 3.2 0.00 0.00 0.00 41 1015.6
20260504004025 16 360 0.0 1.6 0.00 0.00 0.00 42 1015.6
20260504003504 16 0 0.0 0.0 0.00 0.00 0.00 42 1015.7
20260504003004 16 0 0.0 0.0 0.00 0.00 0.00 43 1015.7
20260504002504 16 0 0.0 0.0 0.00 0.00 0.00 44 1015.7
20260504002004 16 0 0.0 0.0 0.00 0.00 0.00 44 1015.9
20260504001504 16 0 0.0 0.0 0.00 0.00 0.00 45 1016.0
20260504001004 16 0 0.0 0.0 0.00 0.00 0.00 45 1016.0
20260504000504 15 0 0.0 0.0 0.00 0.00 0.00 46 1016.3
20260504000004 15 0 0.0 0.0 0.00 0.00 0.00 47 1016.0
20260503235525 15 270 0.0 1.6 0.00 0.00 0.00 48 1016.0
20260503235004 15 315 0.0 1.6 0.00 0.00 0.00 49 1016.0
20260503234504 15 333 0.0 1.6 0.00 0.00 0.00 49 1016.1
20260503234004 15 315 0.0 1.6 0.00 0.00 0.00 50 1016.3
20260503233504 15 0 0.0 0.0 0.00 0.00 0.00 50 1016.0
20260503233004 15 0 0.0 0.0 0.00 0.00 0.00 51 1016.3
20260503232504 15 0 0.0 0.0 0.00 0.00 0.00 51 1016.2
20260503232004 15 0 0.0 0.0 0.00 0.00 0.00 51 1016.2
20260503231525 15 0 0.0 0.0 0.00 0.00 0.00 52 1016.3
20260503231003 15 0 0.0 0.0 0.00 0.00 0.00 52 1016.3
20260503230503 15 0 0.0 0.0 0.00 0.00 0.00 52 1016.3
20260503230003 15 0 0.0 0.0 0.00 0.00 0.00 53 1016.3
20260503225503 15 202 0.0 1.6 0.00 0.00 0.00 53 1016.5
20260503225003 15 202 0.0 1.6 0.00 0.00 0.00 53 1016.4
20260503224503 15 0 0.0 0.0 0.00 0.00 0.00 53 1016.3
20260503224003 15 0 0.0 0.0 0.00 0.00 0.00 52 1016.4
20260503223503 15 0 0.0 0.0 0.00 0.00 0.00 52 1016.4
20260503223003 15 0 0.0 0.0 0.00 0.00 0.00 51 1016.3
20260503222503 16 0 0.0 0.0 0.00 0.00 0.00 51 1016.4
20260503222003 16 0 0.0 0.0 0.00 0.00 0.00 51 1016.3
20260503221524 16 0 0.0 0.0 0.00 0.00 0.00 52 1016.3
20260503221003 16 0 0.0 0.0 0.00 0.00 0.00 51 1016.2
20260503220503 16 0 0.0 0.0 0.00 0.00 0.00 51 1016.3
20260503220003 16 0 0.0 0.0 0.00 0.00 0.00 51 1016.3
20260503215503 16 0 0.0 0.0 0.00 0.00 0.00 51 1016.2
20260503215024 16 0 0.0 0.0 0.00 0.00 0.00 51 1016.1
20260503214503 16 292 0.0 1.6 0.00 0.00 0.00 51 1016.2
20260503214003 16 292 0.0 1.6 0.00 0.00 0.00 51 1016.2
20260503213503 16 22 0.0 1.6 0.00 0.00 0.00 51 1016.3
20260503213003 16 11 0.0 1.6 0.00 0.00 0.00 51 1016.1
20260503212524 16 286 0.0 1.6 0.00 0.00 0.00 51 1016.0
20260503212003 16 224 0.0 3.2 0.00 0.00 0.00 51 1016.1
20260503211524 16 211 1.6 4.8 0.00 0.00 0.00 51 1016.0
20260503211003 16 174 1.6 4.8 0.00 0.00 0.00 50 1016.0
20260503210503 16 135 0.0 1.6 0.00 0.00 0.00 50 1016.0
20260503210003 16 174 0.0 1.6 0.00 0.00 0.00 50 1015.9
20260503205503 16 193 1.6 4.8 0.00 0.00 0.00 50 1016.0
20260503205003 16 185 3.2 6.4 0.00 0.00 0.00 50 1016.0
20260503204524 16 191 3.2 6.4 0.00 0.00 0.00 50 1016.1
20260503204003 16 215 1.6 4.8 0.00 0.00 0.00 49 1015.9
20260503203503 16 204 1.6 3.2 0.00 0.00 0.00 49 1016.0
20260503203003 16 210 1.6 3.2 0.00 0.00 0.00 49 1016.0
20260503202503 16 222 0.0 3.2 0.00 0.00 0.00 49 1015.9
20260503202003 16 202 0.0 1.6 0.00 0.00 0.00 49 1016.0
20260503201524 16 224 1.6 3.2 0.00 0.00 0.00 49 1016.0
20260503201003 16 229 1.6 3.2 0.00 0.00 0.00 48 1016.0
20260503200503 17 219 1.6 3.2 0.00 0.00 0.00 48 1016.0
20260503200003 17 220 1.6 3.2 0.00 0.00 0.00 48 1016.1
20260503195503 17 210 1.6 3.2 0.00 0.00 0.00 49 1016.0
20260503195003 17 205 1.6 3.2 0.00 0.00 0.00 49 1015.9
20260503194503 17 202 0.0 3.2 0.00 0.00 0.00 48 1015.9
20260503194003 17 226 0.0 3.2 0.00 0.00 0.00 44 1015.8
20260503193503 17 224 0.0 3.2 0.00 0.00 0.00 44 1015.6
20260503193003 17 210 0.0 3.2 0.00 0.00 0.00 44 1015.7
20260503192503 17 209 1.6 3.2 0.00 0.00 0.00 44 1015.7
20260503192024 17 211 3.2 6.4 0.00 0.00 0.00 44 1015.3
20260503191503 17 212 3.2 6.4 0.00 0.00 0.00 44 1015.6
20260503191003 17 205 4.8 6.4 0.00 0.00 0.00 44 1015.6
20260503190524 17 203 4.8 6.4 0.00 0.00 0.00 44 1015.6
20260503190003 17 213 4.8 6.4 0.00 0.00 0.00 44 1015.5
20260503185503 18 221 4.8 9.7 0.00 0.00 0.00 44 1015.2
20260503185003 18 221 1.6 9.7 0.00 0.00 0.00 42 1015.1
20260503184503 18 0 0.0 0.0 0.00 0.00 0.00 41 1015.2
20260503184003 18 0 0.0 0.0 0.00 0.00 0.00 41 1015.2
20260503183503 18 0 0.0 0.0 0.00 0.00 0.00 41 1015.2
20260503183003 18 0 0.0 0.0 0.00 0.00 0.00 41 1015.1
20260503182503 18 0 0.0 0.0 0.00 0.00 0.00 41 1015.1
20260503182004 18 0 0.0 0.0 0.00 0.00 0.00 41 1015.2
20260503181524 19 0 0.0 0.0 0.00 0.00 0.00 40 1015.1
20260503181003 19 0 0.0 0.0 0.00 0.00 0.00 40 1015.0
20260503180503 19 0 0.0 0.0 0.00 0.00 0.00 40 1015.2
20260503180003 19 0 0.0 0.0 0.00 0.00 0.00 40 1015.1
20260503175503 20 0 0.0 0.0 0.00 0.00 0.00 40 1015.1
20260503175003 20 0 0.0 0.0 0.00 0.00 0.00 40 1015.2
20260503174539 20 0 0.0 0.0 0.00 0.00 0.00 40 1015.2
20260503174003 20 0 0.0 0.0 0.00 0.00 0.00 40 1015.0
20260503173504 20 0 0.0 0.0 0.00 0.00 0.00 40 1015.1
20260503173003 20 0 0.0 0.0 0.00 0.00 0.00 39 1015.1
20260503172503 20 0 0.0 0.0 0.00 0.00 0.00 38 1015.2
20260503172024 20 0 0.0 0.0 0.00 0.00 0.00 37 1015.3
20260503171503 20 270 0.0 1.6 0.00 0.00 0.00 37 1015.2
20260503171003 20 270 0.0 1.6 0.00 0.00 0.00 36 1015.2
20260503170503 20 0 0.0 0.0 0.00 0.00 0.00 35 1015.0
20260503151003 21 270 6.4 8.0 0.00 0.00 0.00 34 1015.9
20260503150503 21 259 6.4 8.0 0.00 0.00 0.00 35 1015.9
20260503131003 22 247 6.4 11.3 0.00 0.00 0.00 36 1017.0
20260503130503 22 243 6.4 11.3 0.00 0.00 0.00 36 1017.0
20260503110504 21 246 8.0 12.9 0.00 0.00 0.00 36 1017.3
20260503081504 19 151 4.8 9.7 0.00 0.00 0.00 49 1017.7
20260503081005 19 141 9.7 9.7 0.00 0.00 0.00 48 1017.7
20260503080504 19 127 8.0 9.7 0.00 0.00 0.00 48 1017.7
20260503072504 18 39 0.0 6.4 0.00 0.00 0.00 52 1017.7
20260503072004 18 67 0.0 1.6 0.00 0.00 0.00 53 1017.7
20260503071505 17 67 0.0 1.6 0.00 0.00 0.00 54 1017.6
20260503071004 17 0 0.0 0.0 0.00 0.00 0.00 56 1017.8
20260503070504 16 360 0.0 1.6 0.00 0.00 0.00 60 1017.6